Theta_e
347 347 348 348 348 349 348 348 348 348 350 350 350 351 353 353 354 353 354 355 358 357 358 355 353 354 352 348 347 349 351 351 350 352 350 349 356 358 363 360 365 367 370 371 369 370 368 370 368 370 367 365 360 359 362 364 369 367 365 366 361 355 349 350 349 352 348 344 349 345 347 351 350 354 355 354 354 355 356 355 353 353 353 353 356
348 346 347 348 347 349 349 349 349 346 350 351 351 352 355 353 355 356 357 356 358 360 359 356 355 354 350 348 344 344 347 346 348 350 347 348 358 361 363 361 365 367 368 368 369 369 368 366 371 373 365 367 366 365 368 370 364 360 360 360 364 356 350 349 348 351 346 342 341 341 343 346 350 352 350 349 350 350 351 351 352 350 349 351 354
347 346 347 347 347 348 348 348 348 349 350 351 353 354 355 354 357 358 358 358 358 361 361 355 356 356 351 348 345 342 348 349 347 349 349 348 354 360 361 360 364 366 368 367 367 366 366 368 369 372 366 370 365 369 364 369 371 366 364 361 357 360 351 352 352 352 341 343 345 343 337 338 345 346 348 348 347 347 348 347 349 348 346 348 352
344 346 345 346 347 349 349 350 349 350 351 352 353 355 354 355 358 359 359 360 360 362 363 360 358 359 358 354 350 347 347 351 352 351 351 350 351 359 360 359 360 363 365 367 366 367 367 369 368 368 370 369 369 372 369 370 369 369 363 363 359 352 347 347 350 350 351 345 339 338 336 337 335 340 343 345 346 345 344 346 345 347 347 350 351
343 346 346 346 347 348 350 351 352 350 352 352 354 354 355 355 359 360 360 360 362 364 363 362 361 360 360 358 354 351 352 350 350 348 353 353 350 357 358 357 358 360 364 366 367 366 368 369 368 369 370 370 369 366 367 360 364 362 363 364 361 356 345 345 348 347 348 351 345 339 335 336 334 335 338 338 344 342 344 344 342 345 349 352 349
346 345 346 347 348 350 352 352 351 352 352 354 355 356 358 357 359 362 361 361 361 363 363 363 361 360 358 354 351 347 347 348 348 347 347 350 347 349 358 356 356 358 362 366 367 365 368 368 368 367 367 369 368 365 365 366 361 365 365 363 363 363 361 347 343 350 347 348 347 345 344 336 335 337 339 335 349 344 342 339 338 345 351 348 353
347 346 345 346 347 349 351 352 351 352 354 356 357 358 360 360 362 362 362 361 361 363 364 363 363 361 360 356 353 350 349 353 357 353 348 349 351 350 353 358 357 355 360 365 366 367 368 369 370 368 366 368 367 366 362 361 362 362 365 363 364 366 362 352 347 345 352 348 346 345 346 348 343 340 336 341 337 342 343 342 342 342 345 347 348
343 344 346 347 348 350 350 352 353 352 355 356 356 358 360 362 364 365 363 362 362 364 364 363 362 362 361 358 354 352 350 353 356 355 351 353 351 351 351 354 358 357 358 364 367 368 368 369 370 369 364 365 364 363 362 361 364 366 365 369 371 365 370 361 349 347 348 348 350 347 347 348 345 344 345 342 340 338 340 342 343 341 343 345 346
346 346 348 347 349 350 352 352 353 354 354 355 356 358 360 362 364 365 365 364 363 365 363 363 364 362 361 358 355 355 353 352 354 353 351 354 354 355 354 352 356 360 360 362 366 367 368 368 370 368 365 364 365 362 360 359 361 366 365 370 369 369 367 364 358 353 349 347 347 349 348 348 346 346 347 348 342 340 338 336 338 341 345 344 343
347 344 346 351 351 351 353 354 355 354 355 357 358 358 359 362 364 365 364 364 364 366 365 365 363 362 360 359 357 355 355 354 353 354 354 355 355 359 357 356 354 360 363 363 366 367 367 368 367 367 366 362 362 361 361 360 361 364 367 367 369 369 372 365 360 358 354 352 352 352 351 350 348 345 343 343 342 344 337 337 339 338 340 341 346
341 345 346 352 353 353 354 353 355 354 355 357 357 357 359 360 364 364 365 364 365 365 366 364 362 361 360 360 359 358 358 356 353 355 357 357 357 358 358 356 355 355 359 362 363 366 368 368 365 364 366 364 364 363 363 359 358 359 363 366 365 368 368 368 361 360 360 357 353 354 354 348 347 344 344 343 342 341 340 340 340 338 334 338 345
345 343 348 352 353 353 354 354 354 354 354 355 356 357 358 360 362 364 365 365 364 364 365 363 362 361 361 361 360 361 361 356 355 355 358 359 358 357 360 359 358 355 359 357 360 360 365 366 367 365 365 365 364 365 363 362 362 361 361 364 365 366 368 366 365 361 357 360 354 351 350 348 347 345 344 344 340 343 342 341 339 343 342 340 341
345 344 349 351 351 352 353 355 356 356 354 355 356 357 358 360 362 363 364 365 365 366 364 364 363 361 360 361 361 363 362 361 359 357 361 360 361 359 360 359 360 357 354 354 357 360 362 364 366 364 366 367 368 367 365 367 367 364 364 362 364 366 365 366 363 362 359 354 351 349 348 348 346 347 345 343 344 344 343 338 339 340 339 340 345
343 347 348 352 352 353 354 355 356 356 355 355 357 358 359 360 363 364 364 366 367 366 364 364 363 362 362 361 362 362 363 363 362 358 360 362 363 361 358 358 360 359 355 356 356 358 361 363 367 366 368 370 369 370 369 369 369 366 364 364 362 365 366 365 365 363 362 361 359 352 349 347 345 346 347 342 341 342 342 340 345 344 341 340 342
344 344 344 350 353 355 354 355 356 357 356 355 356 358 361 361 363 365 366 367 367 366 365 363 362 363 363 362 361 361 360 361 362 363 362 362 361 360 360 357 358 361 357 360 362 362 363 364 366 367 367 369 371 370 367 369 370 369 367 366 365 365 365 364 363 363 361 360 360 360 354 350 348 348 349 347 347 346 346 345 346 343 340 339 342
345 345 344 353 355 355 355 355 356 358 358 356 357 359 359 361 364 366 366 366 367 367 365 364 364 364 364 363 362 362 362 362 363 366 365 363 363 361 361 361 359 359 362 363 363 362 363 363 366 366 368 367 369 370 369 366 368 367 367 368 366 364 364 365 365 364 362 362 361 362 361 355 354 350 352 350 350 353 354 352 348 346 342 339 341
340 342 347 353 355 356 355 356 356 357 357 357 359 360 361 363 364 366 367 367 368 368 367 366 365 364 363 362 362 362 361 361 360 364 363 365 365 362 361 361 361 360 360 361 364 366 365 364 364 363 366 367 368 370 368 367 368 367 366 368 367 363 365 366 363 363 365 360 361 362 362 361 360 361 359 355 357 360 357 355 351 345 348 343 340
342 345 349 353 354 356 355 356 357 357 358 358 361 362 364 364 366 366 367 366 367 367 365 364 365 363 363 362 362 363 361 361 363 363 365 364 364 365 362 362 360 358 358 358 362 365 366 367 365 363 363 366 366 365 368 367 368 366 365 367 367 367 365 367 368 365 363 364 362 360 362 360 364 362 361 357 361 364 358 357 355 352 351 346 344
340 344 348 350 353 354 356 356 357 358 360 360 361 361 363 364 365 366 366 367 367 366 365 365 365 362 361 361 362 362 362 363 363 365 366 364 362 363 361 361 362 361 360 362 362 361 364 365 366 363 364 364 365 364 366 367 368 366 364 364 366 368 367 366 368 367 365 363 363 361 362 359 362 361 362 357 362 364 362 360 360 360 356 354 351
338 342 343 342 351 354 355 355 355 357 359 359 360 360 361 363 365 366 367 369 369 367 365 364 363 361 361 363 363 364 365 364 364 365 365 364 364 363 363 358 361 360 360 360 361 361 362 364 363 361 358 361 364 364 364 366 367 366 363 360 360 366 365 365 364 363 362 363 364 362 364 363 363 364 363 360 359 364 365 362 363 362 362 360 358
339 339 338 341 349 352 355 356 355 357 360 360 359 360 361 362 363 365 366 366 366 365 365 364 363 362 363 362 361 363 363 363 364 365 365 366 365 365 363 360 363 360 361 360 360 363 363 363 361 362 358 360 364 363 364 365 367 366 365 364 363 364 365 364 365 364 362 363 365 364 364 365 366 365 364 362 359 361 365 363 362 361 360 363 362
337 340 341 344 345 351 354 355 355 356 357 358 359 360 360 361 362 363 364 365 365 364 364 364 364 362 362 362 362 363 363 364 363 364 365 365 365 364 365 364 359 361 362 361 362 361 362 362 361 360 362 359 364 366 361 362 365 365 365 363 362 363 365 365 365 364 365 364 364 365 366 365 366 365 362 361 361 357 359 361 361 361 360 361 364
333 336 338 340 345 348 352 355 354 354 356 358 358 358 359 360 361 362 363 364 364 363 364 365 363 363 363 364 363 364 364 364 362 364 363 363 364 366 366 364 360 360 362 362 363 362 364 364 363 362 364 362 365 363 363 362 363 365 365 362 361 363 364 364 363 363 363 365 364 365 364 365 363 363 364 363 361 359 358 358 358 359 360 360 362
335 336 336 340 342 350 354 355 354 355 356 357 358 359 360 360 361 362 361 363 363 363 362 364 363 363 365 365 364 364 362 362 362 362 362 362 363 366 365 364 361 359 360 363 364 364 365 366 363 363 364 364 364 364 364 362 362 364 365 365 364 363 364 363 361 361 362 363 363 364 364 362 362 362 364 365 363 361 359 359 359 359 360 358 360
334 336 336 339 340 348 355 355 358 356 354 357 357 358 359 359 360 360 361 363 363 364 363 364 364 363 362 363 363 362 361 362 361 360 361 361 362 363 365 364 362 359 359 362 363 365 367 367 363 363 365 366 365 366 366 361 361 364 366 365 365 365 365 365 364 364 364 364 364 363 363 363 363 362 363 364 363 363 362 361 360 363 362 362 362
336 338 337 337 346 353 357 359 358 355 355 358 359 358 359 360 360 361 361 362 361 362 363 364 363 362 363 364 363 361 361 361 361 360 360 362 361 360 363 364 363 360 359 361 363 363 365 367 368 366 366 368 368 367 367 365 360 361 364 364 364 364 363 366 365 364 364 364 363 364 363 363 362 361 361 362 365 364 363 363 363 363 363 365 366
334 338 337 346 358 356 356 359 355 354 355 357 358 358 358 360 361 361 362 361 362 362 363 364 363 362 363 364 363 361 361 362 362 360 361 362 360 358 359 362 363 360 358 358 362 364 364 366 368 368 367 369 369 368 369 368 364 362 363 364 361 362 364 364 366 365 363 363 363 362 363 363 363 363 362 362 364 365 362 364 366 366 366 365 363
343 346 347 346 350 357 358 357 356 355 354 356 358 357 358 359 359 361 361 360 361 361 362 364 363 362 364 364 365 364 361 363 364 365 363 361 359 358 359 361 363 361 358 358 359 362 363 364 367 368 369 370 371 369 371 371 368 364 361 364 364 361 361 363 363 365 361 357 358 360 359 362 363 366 366 365 364 362 365 365 366 367 367 366 365
331 338 343 345 347 357 358 356 356 355 354 355 356 357 359 360 361 362 360 361 363 361 362 363 364 363 366 368 368 366 364 365 365 366 363 362 361 361 361 362 365 362 359 358 358 359 363 364 366 367 368 367 368 368 369 369 369 366 363 361 364 363 361 361 362 360 360 359 356 355 355 357 365 373 369 369 369 369 365 365 368 369 368 366 366
328 335 339 345 348 353 359 358 360 356 356 353 355 358 357 358 359 359 361 361 362 362 363 363 364 365 368 369 369 370 367 367 366 366 367 365 363 363 360 360 363 363 364 362 361 359 360 363 364 366 367 366 366 369 364 353 358 368 365 360 363 365 364 361 362 361 357 357 357 355 352 365 366 370 368 364 359 362 364 364 365 368 368 367 365
334 338 338 344 346 350 357 360 360 358 356 354 356 358 358 357 359 359 360 361 362 364 364 365 365 367 369 370 370 370 368 368 368 368 368 368 368 366 367 367 366 366 367 368 362 358 357 360 363 365 366 366 364 365 350 340 342 350 365 364 361 364 367 364 360 363 361 356 356 358 360 359 370 372 372 357 355 351 351 350 349 353 360 369 366
336 339 342 345 344 347 351 356 357 356 356 355 358 357 357 356 358 358 358 360 361 362 363 366 366 368 370 371 370 370 369 369 369 369 370 369 368 367 368 367 364 365 368 365 362 361 363 359 360 363 364 365 365 354 337 337 339 339 352 367 361 360 362 363 363 359 360 360 356 353 354 356 358 363 364 373 361 350 346 346 343 343 345 344 346
338 340 344 346 346 345 351 354 356 355 353 354 355 355 358 358 360 360 361 360 361 362 364 366 367 369 370 371 372 371 370 369 370 371 371 370 369 368 366 365 363 366 367 367 367 362 362 361 359 363 361 364 365 343 333 334 336 336 337 355 361 360 358 361 363 362 359 361 362 358 353 353 353 368 369 366 372 370 345 339 342 342 342 340 336
339 344 341 345 354 357 357 352 359 358 354 355 357 355 358 359 360 362 361 364 364 364 365 365 368 369 370 372 372 372 370 370 371 372 372 370 369 368 368 367 367 368 368 367 364 365 365 367 363 363 366 363 365 341 331 330 333 333 335 343 365 360 360 359 362 363 361 361 363 364 361 358 358 364 369 368 370 372 373 364 359 359 361 357 341
345 347 349 353 356 357 359 358 355 354 358 356 353 355 359 359 361 360 362 366 363 364 365 366 366 369 370 371 371 372 371 372 372 372 372 371 370 370 369 368 366 366 367 368 366 366 366 366 364 362 363 362 360 333 328 327 328 329 332 339 364 360 360 362 362 364 367 365 366 365 366 364 366 365 364 367 370 371 371 370 371 368 367 367 368
345 347 350 353 354 357 358 360 361 351 353 357 354 354 355 358 360 360 361 363 365 366 365 367 367 368 369 371 370 370 371 372 372 372 371 370 370 370 370 369 367 365 367 368 369 368 367 367 366 364 361 361 360 326 327 326 325 327 329 354 362 361 361 361 362 364 365 369 369 369 370 368 368 369 365 354 361 372 370 369 368 368 368 367 368
347 348 349 353 356 357 359 361 360 356 349 355 355 354 355 357 359 359 362 362 363 364 364 366 366 368 369 370 370 369 371 371 372 371 370 370 370 370 370 371 367 365 364 365 368 366 369 367 367 367 363 362 362 336 324 322 323 323 332 360 362 362 362 362 362 364 365 366 368 370 370 369 369 370 359 341 339 356 368 366 365 365 365 364 363
347 350 351 353 355 358 359 357 355 354 351 358 357 355 357 360 359 361 361 360 360 361 364 366 366 368 369 371 371 371 371 370 371 370 370 370 370 371 370 371 368 365 360 363 366 366 367 368 366 366 365 364 362 346 319 320 321 320 339 362 363 362 363 363 363 365 366 367 369 369 372 370 370 370 349 337 334 352 367 365 363 361 361 362 364
347 349 349 350 354 357 356 358 356 350 351 359 362 357 354 357 359 359 360 358 358 362 364 366 366 368 370 370 371 371 371 370 370 370 370 370 370 371 370 371 368 366 364 363 364 364 365 367 366 366 362 362 363 348 317 319 318 318 340 365 364 363 362 362 362 363 366 366 367 367 367 363 366 363 342 334 331 350 367 366 365 363 360 361 363
347 350 351 353 355 356 356 355 352 352 352 359 359 356 356 357 358 359 358 358 360 363 367 369 368 369 370 370 371 372 372 370 371 371 372 371 371 370 370 369 367 367 364 361 360 361 362 362 363 364 364 365 365 363 335 316 316 316 326 365 365 362 361 362 364 364 365 366 366 368 365 339 335 335 334 328 324 328 363 367 366 363 362 361 367
345 348 350 351 354 354 356 355 355 357 352 355 358 356 356 359 360 360 359 359 362 366 368 369 369 368 369 370 370 371 370 370 371 370 370 369 369 369 368 368 367 365 364 363 360 360 358 361 361 363 362 363 364 367 345 315 315 316 320 337 364 364 364 364 364 363 363 363 365 365 367 344 330 329 327 323 317 317 333 366 366 365 366 370 358
346 348 350 352 351 354 357 356 356 353 354 356 357 360 361 362 360 359 361 362 365 367 368 370 369 368 368 368 369 371 371 369 372 372 371 369 370 369 368 367 366 366 366 365 365 363 359 359 361 362 364 363 363 357 364 318 316 314 318 322 357 364 364 365 365 365 364 363 364 366 369 350 328 328 326 323 319 319 318 352 367 339 337 333 365
342 347 351 353 351 353 354 354 352 353 355 355 355 360 360 362 359 363 364 365 366 367 369 370 370 367 369 370 369 369 369 368 369 371 370 368 369 369 369 369 368 367 366 365 366 365 363 361 362 362 364 369 374 370 345 336 315 313 314 318 328 347 338 368 364 364 364 364 368 367 368 350 324 323 322 322 322 320 323 342 330 330 330 330 348
339 345 351 353 354 355 354 353 352 354 356 357 359 360 361 361 362 366 366 366 368 368 369 369 368 368 367 367 367 369 370 369 370 371 371 370 369 368 368 368 368 365 363 363 364 365 363 360 360 362 365 368 373 371 344 332 326 313 313 315 319 324 334 359 364 364 365 363 367 367 364 327 315 314 316 319 319 321 337 326 322 324 326 337 353
337 343 350 353 354 354 354 354 354 358 360 362 360 360 361 363 365 369 368 366 367 368 368 368 366 366 367 368 368 369 369 368 370 371 370 368 369 368 366 367 368 365 363 363 364 365 364 362 362 362 363 364 366 367 370 339 323 316 314 313 317 320 321 325 361 364 366 361 326 314 319 313 315 314 315 317 318 318 314 316 318 320 335 350 355
337 342 346 352 355 355 355 357 356 358 360 364 362 360 362 364 368 368 367 367 367 367 367 367 367 366 365 366 366 366 368 367 368 369 369 369 368 365 365 366 365 364 364 363 363 361 360 362 361 363 362 363 365 366 368 359 331 323 319 315 316 318 322 322 336 357 323 315 313 312 311 314 318 322 337 347 352 354 326 321 323 329 349 354 357
334 337 342 347 354 353 355 356 357 357 356 355 358 359 364 367 368 366 365 368 368 368 367 367 366 365 367 366 366 364 365 365 367 367 368 368 368 367 365 364 364 362 363 362 362 361 360 359 361 362 363 364 365 367 366 365 354 344 341 333 325 329 322 325 336 350 340 347 336 345 345 333 334 330 341 341 342 333 341 342 345 348 354 358 361
335 336 339 342 347 350 353 356 357 361 362 360 360 363 365 366 366 365 364 369 368 368 366 367 366 365 365 365 365 366 365 364 365 366 365 365 366 366 364 364 364 362 361 361 361 359 360 361 360 361 363 363 363 365 366 369 363 355 352 346 340 342 343 343 347 354 357 358 353 333 335 352 352 353 355 357 355 355 353 352 356 356 357 358 349
334 335 336 339 342 346 350 354 356 360 362 366 363 362 365 366 366 366 370 369 367 370 369 369 367 367 365 367 366 365 365 365 365 366 367 381 375 365 365 366 369 368 367 363 362 363 363 363 363 363 362 361 365 363 366 346 370 339 353 355 351 351 352 350 344 335 356 357 356 353 355 356 354 354 353 354 354 352 353 353 355 356 357 356 347
334 335 336 336 338 341 342 346 352 356 360 361 364 365 366 364 366 367 369 367 369 369 368 368 368 367 368 365 365 364 365 365 366 363 356 335 308 300 317 367 361 319 306 307 329 362 360 368 365 365 358 364 364 372 319 321 322 326 327 329 331 329 330 344 334 324 344 355 354 352 353 352 351 352 351 349 349 349 349 349 351 342 350 345 342
333 333 333 333 335 338 339 340 345 352 355 358 360 362 364 366 367 369 369 369 369 365 364 365 367 366 365 366 366 366 366 368 368 368 365 357 352 336 300 297 309 310 302 296 295 298 305 316 366 364 337 309 312 306 305 307 308 309 312 318 319 318 318 321 318 339 351 352 352 350 351 351 351 350 349 348 349 348 347 346 348 344 343 341 338
Wind_Speed
17 20 21 22 21 19 18 17 18 19 17 18 18 18 17 15 15 14 13 14 12 11 11 10 10 9 8 9 8 8 7 6 6 5 5 4 6 5 6 4 4 4 4 4 4 2 3 5 6 1 6 5 5 2 4 2 2 2 5 4 1 2 2 3 3 3 2 3 2 4 4 2 4 1 1 2 1 2 2 3 2 3 3 3 2
17 18 20 22 20 22 19 17 19 20 18 19 19 19 17 17 17 15 13 13 13 12 10 10 9 9 9 9 8 8 8 7 6 6 6 5 6 5 5 5 5 5 5 4 4 5 5 3 2 3 2 5 6 6 3 3 1 6 2 0 2 3 1 3 4 3 3 3 2 3 4 4 2 2 2 2 3 4 4 3 2 2 4 4 4
18 20 21 21 23 23 19 18 19 20 20 20 19 19 18 17 15 15 13 14 13 12 11 10 10 9 9 8 8 7 8 7 7 7 6 6 7 7 5 5 5 5 5 5 4 4 3 3 3 2 3 3 1 4 4 2 1 4 5 1 4 1 2 2 1 4 2 4 3 0 3 2 3 2 0 2 1 2 2 4 1 4 4 3 1
18 19 22 22 22 21 20 19 19 19 19 19 20 20 17 15 16 15 14 14 13 13 11 11 11 9 9 8 8 7 7 7 6 6 6 6 7 7 6 6 6 5 6 6 5 4 4 4 3 2 3 2 2 1 4 3 3 2 4 0 4 2 2 4 4 3 3 4 4 1 3 3 4 4 3 2 5 5 3 3 4 2 5 2 2
16 19 20 21 21 22 21 19 19 20 20 20 20 19 15 19 17 17 14 14 13 13 13 11 10 10 8 8 8 7 5 6 6 6 6 6 6 7 7 7 7 6 6 6 5 5 4 3 3 2 2 3 2 2 3 4 4 2 0 2 3 4 2 3 3 5 3 3 3 3 3 3 5 3 7 3 2 3 4 5 6 3 5 3 3
17 19 20 21 21 20 20 20 21 20 20 20 20 20 19 18 18 17 14 14 14 15 14 11 10 10 10 9 9 8 7 7 8 8 8 8 8 7 8 8 8 7 6 5 6 4 4 4 4 3 3 3 2 2 2 1 1 3 3 5 2 1 2 1 4 3 5 3 1 1 2 3 2 3 2 3 3 3 4 1 1 1 5 4 3
16 19 20 22 22 22 22 21 21 21 20 19 19 20 20 19 19 18 15 14 14 15 16 12 12 10 12 11 10 10 9 8 8 8 7 7 7 7 6 8 8 8 7 7 6 5 5 4 4 3 4 3 3 2 2 2 3 1 2 2 2 3 2 2 1 4 2 2 3 1 2 4 3 2 4 1 2 2 5 5 4 4 6 5 6
19 20 22 23 23 24 24 23 21 21 20 20 19 19 20 20 20 19 15 15 14 14 16 14 12 12 12 11 10 10 10 9 9 8 7 5 6 7 6 7 8 7 6 7 7 6 5 5 4 4 3 3 3 2 3 2 2 3 1 2 1 1 0 0 1 4 3 1 3 0 4 3 2 0 2 2 1 0 2 3 7 2 3 3 4
18 18 22 24 25 24 23 23 22 21 20 20 19 18 19 19 19 19 17 16 15 17 16 15 13 13 12 11 10 9 9 9 8 8 7 7 7 7 6 6 7 7 7 7 7 6 6 5 5 5 4 4 3 3 4 2 2 3 2 1 1 2 1 1 1 0 2 4 3 1 1 1 2 1 5 2 1 2 3 6 2 2 2 3 4
15 20 23 24 23 24 23 22 21 20 19 19 19 18 18 18 19 20 19 16 16 18 17 17 15 13 12 12 12 10 9 8 8 9 9 8 8 7 7 6 7 7 7 7 7 7 7 6 6 6 5 5 4 4 3 2 2 2 3 3 2 2 1 2 3 3 1 1 4 2 1 0 1 0 1 2 2 2 1 2 2 0 3 2 2
17 19 22 22 22 22 22 23 23 21 18 20 19 19 19 19 20 21 20 16 17 18 18 18 16 14 13 13 13 12 11 10 9 9 9 9 9 9 8 7 7 7 8 8 8 8 8 7 7 6 5 5 4 3 3 4 5 4 4 4 3 4 3 3 3 2 2 1 2 2 2 3 3 2 0 2 1 3 2 2 2 4 5 1 3
18 20 19 20 20 21 21 22 22 22 20 20 19 19 19 19 19 21 20 18 18 18 19 18 16 15 14 14 14 12 12 10 11 11 11 11 11 10 8 8 8 8 7 7 9 10 8 7 7 6 5 5 5 4 4 4 4 4 4 4 4 4 4 3 3 3 3 3 3 5 4 4 3 3 3 6 2 1 2 3 2 1 2 3 3
15 15 17 18 19 21 22 22 21 20 19 21 22 20 19 19 21 21 21 19 18 19 19 19 17 16 14 14 13 12 12 12 11 11 11 11 10 10 9 9 8 8 8 8 9 10 9 8 7 6 5 5 5 5 4 2 2 2 3 4 4 4 4 5 4 4 5 3 4 3 4 4 2 2 1 3 1 3 3 2 4 5 1 1 3
18 13 14 17 18 19 20 21 21 20 21 21 21 19 18 19 21 22 21 20 18 18 19 19 18 16 15 14 13 12 12 12 11 11 12 10 10 10 10 10 9 10 9 9 8 9 9 9 8 8 7 6 6 5 4 4 3 3 3 4 5 4 4 4 4 4 3 3 3 2 3 2 3 4 4 3 4 4 3 2 3 3 4 3 1
18 19 20 20 20 21 20 21 21 21 22 22 20 19 18 19 20 22 21 21 19 20 18 19 17 17 16 14 14 13 13 13 12 10 11 11 11 11 10 10 9 9 9 9 9 8 9 8 9 9 8 7 7 6 5 5 5 4 4 4 4 4 5 5 5 6 5 5 4 3 3 4 1 3 2 1 3 3 3 2 2 3 4 3 2
16 16 18 19 20 20 19 20 20 20 22 21 21 20 20 19 21 23 23 22 20 20 19 19 17 16 16 16 15 14 12 12 11 10 10 11 11 10 10 10 9 8 8 9 10 9 9 9 9 9 8 8 8 7 7 6 6 6 5 5 5 4 4 6 5 5 5 5 5 3 3 4 2 3 2 2 0 2 3 3 1 2 3 3 3
20 19 18 18 19 20 19 20 20 21 21 21 21 22 22 20 21 22 22 21 21 21 19 19 17 17 17 17 16 15 15 15 14 14 14 12 11 11 10 11 10 9 9 10 10 10 10 10 9 9 9 8 8 8 7 7 6 6 6 5 6 5 5 5 5 5 6 5 6 6 4 3 3 3 3 3 1 1 2 1 2 3 2 3 3
17 16 17 19 20 22 20 19 21 22 23 23 22 22 20 20 21 22 22 23 22 21 20 19 19 18 17 18 17 16 16 16 14 14 13 12 11 10 10 10 11 10 9 10 10 11 10 11 9 9 10 9 9 9 8 8 7 6 6 6 6 5 5 4 5 6 6 5 5 5 5 5 4 4 5 4 2 3 4 4 3 3 3 4 3
17 18 14 16 18 20 20 22 23 22 21 22 22 22 20 20 21 23 24 24 24 20 19 17 18 15 15 17 19 17 16 15 14 13 13 12 13 12 12 11 11 11 10 8 10 11 11 10 10 10 9 10 10 9 9 8 8 7 7 7 6 6 5 6 6 6 6 5 5 5 5 5 4 5 5 5 4 4 4 4 4 3 4 4 4
17 15 15 16 19 21 23 22 23 23 23 22 24 22 23 22 22 21 21 20 21 20 19 19 19 17 16 17 17 16 15 15 14 13 13 13 13 13 13 13 12 11 11 11 11 11 11 12 11 11 11 11 11 10 10 9 8 8 7 7 7 7 7 6 6 6 6 5 6 6 6 5 4 4 5 5 4 4 4 5 5 5 5 5 5
16 19 19 20 19 20 22 22 21 21 20 19 21 23 22 21 22 22 23 24 24 22 21 19 18 18 18 19 19 18 18 16 16 15 14 13 13 12 13 12 11 11 11 12 12 11 11 12 12 11 11 10 10 10 9 9 9 8 8 8 7 8 8 7 7 7 7 7 6 6 6 6 6 6 5 6 6 5 5 5 6 6 6 6 6
18 18 19 15 16 18 21 19 18 19 20 22 21 21 22 23 22 22 22 22 23 22 20 19 18 18 20 20 20 19 18 15 17 16 15 14 13 13 12 12 13 12 12 13 13 12 11 12 12 12 11 11 10 10 11 10 10 9 10 8 8 8 8 8 7 7 8 7 6 7 7 7 7 7 7 7 7 7 6 7 6 7 6 6 6
18 19 18 18 19 20 20 21 21 21 21 22 21 21 22 23 22 21 22 23 23 22 20 18 18 18 20 19 19 18 18 18 18 16 17 16 15 14 13 13 13 13 12 12 13 12 11 12 11 10 10 10 10 11 10 10 10 10 11 10 9 10 10 10 9 9 8 8 8 8 8 8 7 8 8 8 8 7 7 6 6 6 7 6 6
17 16 16 19 20 19 16 19 19 18 19 21 21 20 20 20 21 21 23 24 23 21 20 20 19 20 21 20 19 18 20 19 19 16 18 17 15 14 14 14 14 13 13 12 12 13 12 11 12 11 11 11 11 11 11 11 11 11 11 11 10 10 10 11 10 10 10 9 9 9 9 9 8 8 7 7 7 7 7 6 7 6 6 7 6
17 17 18 16 17 16 14 17 17 18 20 20 20 20 20 21 21 22 22 23 21 20 21 21 21 22 22 20 21 20 20 20 20 17 19 18 17 16 14 15 15 14 14 13 12 12 12 13 12 12 12 12 12 12 12 12 11 11 11 11 11 10 10 11 11 10 10 9 10 10 9 9 9 8 8 8 8 8 7 7 7 6 6 6 6
14 15 16 17 15 15 15 16 16 19 19 18 19 20 20 20 21 20 20 21 21 20 21 21 21 21 21 22 21 20 21 21 20 19 19 18 17 16 15 15 15 15 14 14 14 13 13 13 13 13 13 13 12 12 12 12 12 12 11 11 11 11 11 11 11 11 11 10 10 10 10 10 9 9 9 8 8 9 8 8 8 7 6 6 7
13 10 11 11 11 18 18 17 19 20 19 18 19 19 19 18 19 20 19 19 20 19 20 20 21 21 20 21 21 21 20 20 19 18 17 17 17 17 17 16 15 15 15 15 15 15 13 14 14 13 14 13 13 12 11 12 11 11 12 12 12 12 11 11 11 12 11 11 11 11 10 11 10 10 10 9 8 9 8 9 8 8 7 7 8
4 6 6 6 7 14 15 17 18 18 18 17 19 19 19 18 19 19 19 19 18 19 20 20 20 19 19 21 20 20 20 18 18 16 16 17 17 16 16 15 14 15 16 16 16 16 14 14 14 14 13 13 13 12 12 12 12 11 11 12 12 12 12 12 11 12 12 12 12 12 12 12 12 11 10 10 9 8 8 9 8 7 7 7 8
8 8 9 10 11 11 15 17 17 19 19 19 18 18 17 17 18 18 18 20 18 18 20 20 19 19 18 19 18 17 17 17 17 16 16 16 16 15 14 14 14 14 14 16 15 15 15 14 14 14 14 13 13 13 12 12 12 13 12 13 13 12 12 11 11 12 11 11 11 11 12 12 10 11 12 10 9 6 7 7 7 7 7 7 7
12 10 8 8 11 12 13 15 16 18 18 19 17 17 19 19 19 20 19 18 18 18 18 19 19 18 17 18 17 15 16 16 16 16 15 15 15 15 15 15 15 15 13 13 13 13 15 15 15 15 14 13 12 11 12 16 14 12 13 12 11 12 12 11 11 11 11 12 12 12 11 13 12 12 13 13 12 9 7 8 6 6 7 8 8
11 9 2 6 9 10 12 14 15 16 17 16 16 17 18 20 19 19 18 18 19 18 18 18 18 17 17 17 17 16 16 16 16 15 15 15 14 13 13 13 14 14 13 12 12 15 15 15 15 15 15 13 12 12 16 17 17 16 13 12 11 11 12 11 12 11 10 11 11 11 11 11 10 9 10 14 14 14 13 12 11 9 7 7 7
7 7 7 8 5 9 12 15 17 18 18 17 15 17 18 19 19 20 20 19 19 19 19 17 17 17 17 18 17 17 17 16 16 16 16 15 14 13 13 14 14 15 13 13 14 14 13 14 14 15 15 14 13 13 18 18 18 17 14 11 12 11 11 12 12 12 11 10 11 11 11 10 10 11 10 10 12 14 14 14 14 12 13 15 14
8 8 8 8 9 7 11 15 15 16 17 19 18 18 17 18 18 18 17 18 18 19 18 17 17 17 17 17 17 18 17 17 17 16 16 15 15 14 14 15 16 14 13 13 13 14 14 13 13 13 14 14 13 14 18 20 19 18 17 13 11 12 12 12 12 12 12 10 10 10 10 10 10 12 11 12 10 11 14 16 15 15 15 16 16
9 8 8 11 8 8 10 8 14 15 18 18 18 18 17 17 15 15 17 15 16 17 17 18 17 17 17 17 17 17 17 17 17 16 16 16 16 15 15 14 13 13 13 14 14 14 13 13 12 12 11 13 12 14 19 19 19 19 18 13 11 11 12 11 11 12 11 11 11 10 10 10 10 8 8 10 10 10 9 11 11 10 11 14 16
8 9 9 9 10 10 12 13 13 15 16 16 17 17 16 17 17 18 18 15 16 16 17 17 17 17 17 19 19 17 17 16 16 17 16 16 16 15 15 14 14 14 14 13 14 14 13 14 14 14 13 13 11 18 20 20 19 20 18 13 12 10 9 10 10 11 11 11 11 11 11 10 9 10 10 10 10 9 9 8 10 11 12 12 12
11 12 11 10 10 11 11 11 12 13 15 16 18 18 18 18 18 18 17 17 16 16 17 17 17 18 18 19 19 19 17 16 17 16 17 17 16 15 15 13 13 14 13 12 12 13 14 14 14 15 14 14 11 19 20 21 21 20 18 11 13 12 11 10 10 10 10 10 10 10 10 11 10 11 11 12 10 8 9 9 10 10 10 11 11
13 13 14 13 12 12 12 11 12 14 14 17 17 18 18 18 18 18 18 17 17 17 18 18 18 18 19 19 19 20 18 17 17 17 17 17 16 15 14 13 13 13 14 14 13 14 12 14 15 14 15 12 13 15 20 21 20 21 15 11 13 11 11 12 11 11 11 11 11 11 11 10 12 12 12 12 12 9 10 10 9 10 10 10 10
14 14 14 14 13 12 12 11 11 13 15 13 17 18 17 16 18 18 18 19 20 20 19 19 19 19 19 18 18 18 17 17 17 17 17 16 16 14 14 13 14 14 14 14 13 12 13 14 15 16 16 14 13 14 21 21 21 21 18 13 12 11 11 11 11 11 10 10 12 14 13 13 12 12 13 14 12 10 10 11 11 11 11 11 11
15 15 16 16 14 14 15 16 12 13 14 13 15 18 19 18 18 19 20 21 21 20 20 20 20 19 18 18 17 17 18 18 17 17 16 16 16 14 14 13 13 13 13 12 12 12 13 13 15 16 15 17 14 13 21 21 21 22 18 12 12 11 11 11 11 11 11 11 11 12 15 14 13 13 13 12 13 11 11 11 11 10 11 12 11
15 15 15 16 16 15 14 14 13 12 13 14 16 18 19 17 19 20 21 21 21 21 20 18 18 18 17 17 16 17 17 17 17 16 15 14 14 13 14 14 13 12 12 13 13 13 14 13 13 15 13 16 15 9 17 22 22 22 22 14 11 12 12 12 11 11 10 11 11 11 12 17 17 15 12 10 12 14 12 12 10 11 10 11 8
16 15 16 15 14 13 13 12 10 10 12 14 15 17 18 17 18 19 21 21 20 17 17 17 17 18 17 18 16 17 18 17 16 16 15 14 14 14 14 13 13 12 12 12 14 13 14 13 13 13 13 15 14 13 14 22 22 23 23 18 12 12 11 11 11 11 11 11 11 12 11 15 20 19 17 15 12 13 13 11 12 11 9 3 6
15 16 16 14 13 13 13 10 10 10 12 14 15 14 14 15 17 19 20 18 16 16 17 17 17 18 17 17 17 16 16 15 15 14 14 14 13 13 13 14 12 12 12 12 11 11 12 12 12 12 12 13 13 16 10 19 22 23 23 22 14 13 12 11 11 11 11 11 11 10 10 12 20 20 20 18 17 14 14 9 12 12 7 7 5
16 15 15 15 13 13 11 10 10 11 12 14 16 15 15 14 17 18 16 15 16 16 17 16 16 16 16 17 16 17 15 13 14 15 15 15 13 13 13 12 12 11 12 12 12 11 11 11 11 10 11 10 8 11 15 15 20 22 24 22 20 14 14 12 12 12 11 11 10 10 10 12 18 20 20 20 18 16 10 10 13 10 7 5 4
16 15 15 16 16 13 11 9 10 9 11 11 12 13 13 15 17 13 13 13 14 15 15 15 15 15 16 16 15 16 15 13 14 14 14 14 13 13 12 11 11 11 12 12 11 11 11 12 11 10 10 9 9 8 12 19 17 22 21 23 22 19 11 12 13 12 12 11 11 11 9 12 16 18 19 17 16 14 10 12 10 10 8 4 4
14 15 16 16 13 7 8 9 9 8 9 10 12 13 14 15 13 12 12 13 14 15 15 15 15 15 15 14 14 13 14 13 13 14 14 13 14 13 12 11 12 12 11 11 11 11 11 10 10 11 10 11 12 12 9 15 23 22 22 23 23 23 18 12 11 11 12 2 6 9 7 12 15 17 17 13 9 8 10 11 8 5 3 5 6
14 14 17 16 12 5 4 6 6 9 8 8 10 13 14 13 13 12 13 12 14 14 14 14 15 14 14 14 15 14 14 13 14 13 13 12 13 13 12 11 12 12 11 11 11 11 11 11 11 10 10 11 11 10 10 10 13 19 19 23 24 24 21 17 13 3 9 9 8 11 10 9 7 6 5 5 6 5 8 7 5 4 5 6 7
14 15 15 13 14 6 3 2 4 2 9 11 12 12 12 12 12 14 14 13 14 13 13 13 13 13 14 14 15 13 13 13 14 12 12 12 12 12 12 12 12 12 12 12 12 12 12 11 11 11 10 10 10 10 11 10 11 10 9 12 14 13 18 15 11 5 5 4 3 2 4 4 6 6 2 5 5 7 4 4 5 6 7 6 7
11 12 14 13 13 13 11 8 3 3 3 5 9 9 10 11 13 14 14 13 13 13 13 13 14 13 13 13 13 13 14 12 13 12 12 12 12 12 12 13 13 12 12 12 12 11 11 12 11 11 11 11 11 12 11 10 10 10 10 9 10 10 10 9 10 11 9 7 6 6 6 5 5 5 5 4 5 4 5 5 6 7 7 7 3
11 12 13 11 12 14 14 12 9 6 6 4 4 7 8 12 12 13 12 14 13 13 13 14 14 13 12 12 12 13 12 12 12 12 7 2 5 11 12 12 12 8 9 12 13 11 11 11 11 11 12 12 10 12 12 11 10 13 13 12 11 11 10 10 13 15 11 10 7 7 8 8 8 9 10 11 9 7 8 8 8 8 8 7 5
10 8 11 13 13 14 14 14 11 9 5 5 5 1 4 9 10 11 12 12 12 13 13 14 13 12 12 12 11 12 12 11 12 12 9 6 11 14 11 1 5 8 13 13 8 4 3 6 11 5 3 7 10 4 6 11 17 19 16 18 16 15 15 13 15 18 12 11 10 8 11 13 12 12 12 12 11 9 9 9 9 9 7 6 7
11 13 14 14 14 14 14 15 13 9 8 8 8 7 5 2 4 8 10 11 12 12 12 13 12 11 12 12 10 11 11 10 11 10 9 9 7 9 15 15 12 10 11 13 12 10 9 9 3 6 4 13 12 12 14 14 15 15 15 18 19 18 18 16 17 14 11 13 12 13 13 10 10 12 12 12 12 11 11 10 9 7 6 5 4
Wind_Direction
182 183 183 181 180 178 181 179 181 183 177 176 174 178 182 174 176 179 174 179 167 175 177 182 180 182 190 192 189 186 197 192 202 208 190 200 145 164 158 185 180 192 191 202 187 206 193 176 180 189 122 170 117 213 205 183 50 78 47 26 50 84 114 126 64 52 107 126 170 114 122 111 124 153 74 117 117 111 120 157 138 139 139 142 140
180 181 184 182 181 178 181 179 181 181 180 178 179 180 181 179 178 177 175 179 173 178 177 184 182 185 185 193 195 187 185 196 197 205 209 180 147 162 170 189 174 192 199 202 208 174 217 197 183 178 170 154 163 156 100 35 137 89 100 313 348 70 37 42 86 122 210 137 119 116 109 109 48 126 147 153 162 151 151 137 138 174 148 145 144
184 181 185 182 181 178 180 179 183 183 179 179 179 179 181 181 177 176 177 178 176 178 177 183 185 187 189 191 203 192 186 194 201 199 205 203 162 177 191 185 191 191 198 200 214 212 207 208 197 181 213 97 214 105 139 181 129 112 141 174 62 300 101 110 154 319 65 77 77 228 119 122 107 92 209 109 139 91 151 135 124 124 83 80 223
185 187 185 183 183 179 181 180 181 180 179 180 181 180 181 183 177 177 178 177 177 177 179 180 182 182 191 196 200 222 181 185 203 192 198 219 178 175 190 194 196 204 197 204 206 208 209 198 213 192 192 183 169 161 127 186 133 116 104 215 84 357 130 120 113 76 345 118 159 256 111 127 144 152 157 173 157 149 133 156 128 177 120 113 217
191 186 187 185 185 183 182 180 180 182 182 182 182 181 182 182 178 176 177 179 177 174 177 174 173 176 183 195 197 215 216 175 191 196 193 201 212 176 188 194 192 213 199 206 219 200 204 206 212 213 202 189 190 186 128 193 146 129 340 103 116 187 111 114 132 124 91 11 44 218 147 200 56 105 104 5 311 171 151 131 119 224 122 160 264
195 187 187 189 187 183 183 182 183 184 183 183 183 182 180 180 178 176 176 179 179 174 175 171 173 174 175 181 186 190 198 180 191 200 194 193 213 198 183 190 194 202 207 209 208 210 196 209 207 221 210 191 221 174 154 224 2 162 160 112 184 103 53 95 123 82 100 103 87 103 356 41 70 35 348 81 317 342 139 106 8 56 112 184 169
200 197 195 190 186 185 183 185 186 185 184 182 183 181 181 178 178 177 176 178 178 175 174 174 172 178 181 184 186 186 189 191 193 205 207 199 209 212 186 187 193 204 202 203 208 203 209 205 201 213 223 206 193 229 220 231 170 175 117 127 75 69 118 95 109 118 91 179 185 47 99 358 55 294 75 139 117 46 334 165 143 182 182 180 182
193 204 196 190 186 186 185 185 187 187 182 182 183 182 181 179 178 177 177 177 178 174 177 176 175 178 182 188 190 192 196 194 194 203 212 215 201 209 198 187 185 207 207 198 204 203 209 206 204 214 229 228 193 216 237 248 60 104 85 67 81 100 62 238 193 110 163 200 74 186 136 88 44 184 59 39 322 63 194 283 172 142 218 157 183
195 204 195 188 185 187 185 185 188 186 182 183 184 182 181 179 178 177 178 177 177 176 176 180 179 179 182 187 191 198 202 203 197 199 206 208 206 200 207 190 178 194 208 201 200 209 203 213 206 211 218 222 223 213 222 190 177 145 159 180 198 176 199 144 198 123 252 141 128 199 44 171 187 183 121 197 286 8 298 100 62 101 211 113 53
192 205 205 188 185 186 185 183 184 188 185 183 182 182 180 179 179 179 179 179 177 176 177 179 181 180 183 188 191 193 200 206 201 193 198 195 203 195 199 198 189 187 199 207 198 204 206 209 210 211 216 221 213 232 208 185 174 184 193 201 220 228 172 202 182 173 279 63 146 149 141 297 3 259 170 192 74 323 344 353 45 299 134 114 228
200 212 204 190 185 184 181 183 185 186 183 182 183 183 180 180 180 181 180 178 177 177 177 179 182 182 184 187 190 194 196 200 201 193 191 191 195 196 193 196 205 194 197 197 204 200 207 207 214 208 221 212 212 233 216 206 192 194 196 199 209 219 215 214 219 169 177 210 158 173 188 188 175 193 93 21 177 173 271 289 240 44 24 72 89
200 205 201 189 182 184 184 185 184 186 185 182 184 182 181 181 180 180 181 180 180 179 178 180 181 183 186 187 190 193 193 200 200 196 189 191 192 194 192 191 199 205 206 198 196 203 202 203 216 218 212 220 199 213 225 211 223 182 187 186 209 216 222 225 232 206 192 178 232 171 198 228 170 226 193 159 190 304 341 303 312 278 18 12 58
194 212 203 185 184 184 186 184 183 185 187 184 184 182 181 180 180 180 181 180 179 179 181 181 182 183 185 187 190 192 197 201 203 201 190 192 191 193 190 192 192 202 203 210 198 199 196 202 204 205 208 211 219 204 216 243 279 255 173 196 207 213 217 217 219 214 215 193 205 200 200 215 183 181 273 280 141 124 213 257 313 15 286 257 65
200 199 205 192 184 186 186 184 184 185 188 185 185 184 180 180 179 181 181 181 178 180 180 182 183 183 183 186 188 191 197 203 206 204 198 194 192 196 194 194 193 197 197 200 208 195 199 195 198 203 204 202 204 208 208 203 212 243 212 215 217 208 232 224 236 242 230 219 248 286 261 186 217 191 180 193 223 209 213 270 28 336 302 333 43
194 194 195 193 186 185 185 185 184 186 188 187 186 185 181 181 180 181 181 182 180 180 180 182 181 181 181 186 189 193 198 203 206 207 204 198 197 196 198 199 198 197 198 194 198 197 199 191 193 200 197 200 197 202 203 201 203 215 235 223 245 208 216 235 229 236 233 230 220 210 276 286 308 336 309 263 331 336 354 357 350 320 322 323 279
181 195 207 194 184 184 186 186 185 186 188 188 186 185 185 183 181 181 181 180 181 180 180 180 179 180 182 185 191 194 195 199 202 205 207 204 200 198 195 203 208 193 197 191 191 195 190 193 192 197 196 199 198 199 201 204 200 209 212 213 227 228 215 227 247 243 241 235 235 226 230 270 285 251 281 295 283 346 23 353 329 245 283 293 339
182 188 198 189 183 185 188 187 187 187 187 189 186 186 184 182 181 181 181 180 181 181 178 179 179 178 181 185 190 193 195 198 200 200 203 202 199 198 196 199 203 201 191 192 189 190 190 193 192 196 197 200 200 198 201 208 206 208 209 214 221 231 216 226 237 239 249 235 218 215 223 235 257 268 285 274 285 335 288 266 258 266 263 270 275
178 191 194 189 185 185 187 189 190 190 190 189 186 185 183 183 182 181 181 181 182 183 180 178 178 179 181 186 190 193 195 198 201 196 200 198 197 198 199 195 198 200 198 190 190 187 192 192 191 192 196 198 201 200 200 205 208 213 216 215 220 228 222 226 232 249 242 242 255 232 200 230 221 230 221 243 208 187 222 226 230 233 214 239 267
180 188 188 194 188 185 188 190 192 191 191 190 187 186 185 185 184 183 184 183 181 182 179 177 178 179 182 186 189 192 195 198 199 197 195 198 198 194 201 195 196 197 194 194 186 192 190 191 194 193 196 196 195 200 196 199 203 211 215 215 210 214 219 218 224 227 247 246 239 249 242 233 230 239 256 240 196 194 216 239 240 227 222 228 248
182 174 185 203 203 189 189 191 190 189 189 191 189 188 188 186 184 185 184 182 181 182 179 179 181 181 182 184 188 191 195 195 196 195 193 196 198 195 196 196 196 193 192 193 192 193 189 192 193 200 197 197 193 196 195 195 200 208 216 219 206 208 216 222 229 223 228 235 235 236 238 242 240 247 249 254 246 210 220 230 225 224 225 230 233
185 182 184 196 205 196 190 191 191 189 187 190 190 191 190 187 186 185 183 183 184 183 181 182 180 182 180 183 186 189 192 194 195 194 195 193 195 198 194 199 191 198 190 191 195 195 192 193 197 198 204 195 195 192 194 193 194 202 212 217 225 197 210 217 221 234 236 230 231 237 238 233 235 240 240 249 245 225 214 232 241 240 236 228 224
192 182 186 186 209 207 193 188 189 188 186 190 191 191 191 191 188 187 185 186 185 184 183 180 181 182 182 184 185 187 191 192 195 193 196 194 194 196 195 197 194 194 194 192 193 196 197 195 199 197 200 200 192 194 196 193 193 198 206 206 218 212 203 219 220 221 228 240 230 229 235 237 230 234 244 244 246 246 224 222 227 234 244 241 225
195 196 188 186 202 205 193 185 188 189 188 189 191 191 193 192 189 187 186 187 186 185 182 179 181 181 183 182 183 185 188 191 194 193 196 196 193 194 195 195 197 191 194 197 191 198 194 196 201 196 195 199 192 194 200 197 196 197 205 212 207 208 207 212 216 221 223 225 233 232 232 232 231 228 228 241 251 251 254 254 241 235 235 239 239
200 202 197 187 199 199 188 183 187 189 187 188 191 193 193 192 191 189 190 186 185 183 180 180 180 182 181 181 184 186 188 190 194 195 197 197 193 192 192 195 197 196 190 196 195 196 191 195 198 199 194 198 193 195 199 202 201 199 204 209 212 207 209 214 219 220 223 226 228 229 236 234 229 230 230 235 238 244 244 241 254 255 256 260 263
198 200 202 199 189 185 186 184 185 188 190 189 190 191 193 193 193 192 190 186 185 182 180 180 182 182 183 183 185 186 188 191 193 195 196 197 197 193 191 194 195 202 194 190 195 195 192 191 197 196 194 196 196 196 198 203 201 201 204 208 211 211 210 213 216 220 225 225 228 232 232 231 232 232 229 230 234 237 238 245 240 237 240 244 248
190 197 201 205 174 180 183 182 184 189 190 187 189 192 193 194 196 193 189 186 186 183 181 180 182 182 183 185 187 188 190 192 194 196 196 196 199 197 190 193 196 199 199 191 190 194 192 191 194 195 195 194 196 197 199 204 204 202 203 210 210 213 215 214 215 217 219 224 231 230 232 234 231 229 231 230 233 237 237 236 241 245 245 242 243
178 198 208 204 177 170 176 179 184 190 190 187 190 193 194 193 195 194 191 188 185 184 181 180 183 184 183 185 187 190 190 191 192 195 195 196 199 197 194 191 194 197 198 198 190 193 193 192 192 194 195 193 195 198 197 202 208 206 202 207 213 210 215 216 218 219 219 220 226 230 231 231 234 232 232 233 230 231 237 243 240 244 242 243 244
147 180 210 209 176 165 177 181 185 189 191 190 191 192 194 192 192 194 192 189 186 185 182 181 183 184 183 185 188 189 191 190 191 193 196 197 198 198 196 190 191 196 198 200 196 191 192 192 192 194 194 192 194 196 197 199 204 208 206 204 212 214 213 216 219 220 225 226 224 227 230 228 229 230 228 231 235 236 235 240 242 239 242 241 249
180 188 192 199 192 177 179 185 188 190 192 193 191 192 192 191 191 192 194 191 186 185 183 182 183 185 183 184 185 187 190 187 189 191 197 198 197 198 195 191 189 196 198 199 202 195 190 193 192 194 194 194 194 197 197 197 198 203 208 208 207 213 215 215 218 222 222 228 234 234 233 234 222 211 217 222 234 242 239 238 239 240 241 240 245
181 174 187 197 199 187 184 186 190 193 194 195 191 190 193 192 191 192 193 189 183 186 185 185 185 185 181 180 182 183 186 186 187 189 194 195 197 196 196 195 191 196 197 199 200 200 196 193 193 193 195 196 198 197 192 191 194 198 203 209 207 209 215 216 216 222 225 222 228 238 243 235 228 211 198 200 212 227 246 256 254 240 235 240 242
2 352 288 183 194 197 190 190 193 198 198 198 193 192 193 194 192 192 192 189 185 184 186 186 185 183 179 177 180 182 183 184 185 186 189 193 195 194 195 193 193 193 197 195 200 202 205 196 195 194 196 199 200 199 180 185 192 200 201 206 207 207 209 215 216 216 225 227 228 230 241 249 237 214 199 195 199 208 219 233 250 262 277 272 261
353 333 343 318 258 224 202 198 199 199 199 200 197 194 193 196 191 193 192 189 187 186 186 186 183 182 179 178 180 180 182 181 181 184 185 189 192 195 195 194 195 192 195 196 198 201 205 204 200 200 200 202 204 189 172 182 189 196 205 207 207 209 208 211 215 216 216 223 230 233 233 236 235 232 228 200 197 204 214 225 231 237 245 252 251
318 311 320 308 283 253 210 209 210 205 202 201 198 197 195 196 192 192 190 190 187 186 184 185 185 182 181 179 178 179 180 179 181 181 181 184 189 193 194 195 196 194 192 198 198 198 201 208 207 203 205 203 211 173 173 180 187 193 202 217 210 211 212 210 212 216 219 219 222 230 238 239 244 219 212 223 212 199 210 218 223 229 237 239 245
303 322 311 299 314 301 303 252 214 212 211 206 201 199 195 195 190 186 192 191 184 184 184 185 184 183 182 181 180 178 180 180 179 179 179 183 187 191 192 193 194 193 194 197 199 198 199 202 208 208 206 208 213 161 174 178 185 191 198 209 223 213 215 217 214 216 218 220 220 223 226 234 238 239 229 223 223 222 199 206 221 225 232 235 235
300 305 311 315 307 295 279 285 275 226 214 209 203 200 191 190 187 187 189 189 184 183 182 184 185 184 184 186 187 182 180 178 178 178 179 182 184 187 189 191 194 194 195 196 199 198 199 201 204 207 209 210 215 158 172 177 184 190 195 201 219 229 229 225 222 220 220 221 220 221 227 231 233 235 236 228 225 223 221 216 210 218 223 234 229
315 311 301 294 295 294 286 276 272 262 219 209 204 200 193 189 187 185 186 188 184 182 181 182 185 186 184 185 185 189 181 180 179 179 181 183 184 185 188 190 196 199 198 196 199 202 199 201 201 205 210 209 205 162 175 177 181 187 184 196 213 225 234 236 230 229 224 222 223 222 222 228 231 235 234 226 225 227 229 225 229 235 238 237 237
311 308 306 304 295 282 277 266 256 259 239 207 203 197 194 187 186 185 185 186 184 183 183 183 186 184 185 186 186 188 183 181 179 181 183 183 183 184 186 188 195 200 199 198 200 203 202 202 202 203 210 208 214 173 175 179 178 180 173 196 207 214 223 228 233 229 227 225 223 223 225 226 227 232 233 224 217 211 232 239 243 248 249 253 252
315 311 303 301 299 300 294 280 252 245 246 216 198 193 190 184 184 181 183 185 186 186 184 183 185 185 183 184 185 184 181 181 181 184 184 184 184 182 186 186 194 200 205 204 204 205 205 207 204 205 205 206 214 174 176 177 177 175 178 191 200 209 216 220 226 229 226 225 224 220 221 226 229 231 228 221 210 195 227 236 241 244 245 247 251
313 310 306 304 313 312 302 294 267 239 237 226 195 190 190 185 183 182 184 186 188 185 185 185 186 184 183 185 185 184 183 182 183 185 185 184 184 184 186 187 195 202 209 210 208 209 211 210 211 211 200 206 216 178 175 173 176 176 182 194 195 208 213 215 219 222 223 225 226 219 216 221 227 233 231 218 207 199 228 231 236 239 241 245 248
313 311 315 316 310 298 285 272 259 241 231 218 196 190 190 185 184 183 184 188 188 187 186 183 181 182 184 185 185 184 184 184 184 184 186 185 185 186 188 189 196 201 205 214 211 213 216 216 215 216 207 206 214 196 172 174 176 179 185 191 197 205 211 212 215 219 219 222 223 226 211 210 223 232 238 220 212 206 220 231 234 238 240 243 249
317 317 321 306 298 292 283 268 257 238 227 212 199 191 189 184 184 186 187 192 189 183 181 179 181 183 184 185 185 184 185 185 184 185 184 186 186 188 188 188 195 199 204 209 215 216 219 219 221 219 220 212 212 208 171 177 177 179 188 191 202 205 209 211 214 219 224 223 221 221 230 198 207 218 228 226 214 215 220 229 233 240 242 44 20
315 315 312 307 300 296 284 267 251 235 215 209 199 189 187 180 185 191 192 190 181 179 180 179 181 183 183 183 183 181 183 183 183 181 182 186 186 189 189 190 196 197 202 203 207 216 219 220 222 220 221 222 205 204 166 182 177 182 186 196 203 206 206 210 214 220 221 229 228 219 229 198 194 207 217 224 225 220 220 228 236 243 271 15 328
320 319 319 316 305 295 283 260 243 223 209 209 196 188 186 180 190 192 191 185 180 179 178 178 178 179 180 181 182 179 180 184 184 182 183 184 184 187 187 188 193 193 196 199 201 208 215 220 221 216 220 218 209 198 162 169 183 182 187 195 205 209 198 212 218 220 219 228 227 231 230 187 188 201 210 218 223 227 226 235 245 265 284 337 317
326 320 317 320 310 285 272 253 244 217 206 199 191 186 185 185 193 190 190 185 177 178 177 177 177 178 178 179 178 177 179 184 180 179 181 181 182 186 183 186 189 191 193 195 200 203 209 216 217 216 215 210 210 217 163 163 176 187 189 194 203 216 207 212 221 229 227 227 234 231 226 165 186 195 206 213 220 218 225 240 244 249 264 278 271
322 322 326 322 308 264 257 240 229 206 191 193 195 192 186 190 191 187 189 184 176 175 175 176 176 175 174 176 175 175 179 182 179 177 181 181 182 183 185 187 188 192 195 194 198 200 203 211 215 218 217 217 218 212 208 167 172 184 189 195 201 208 217 221 223 231 246 268 57 62 110 164 178 189 198 206 216 226 239 259 276 319 290 248 238
335 341 339 335 329 291 306 304 263 189 187 189 198 196 192 192 189 188 186 178 174 173 176 175 175 174 175 175 172 174 176 183 178 180 182 183 182 184 185 186 187 191 196 198 200 203 204 206 213 218 220 218 215 213 212 167 175 180 189 196 198 204 210 214 221 65 61 69 75 80 85 101 116 139 147 180 205 192 206 218 241 235 234 235 233
343 338 337 341 358 355 343 292 321 208 190 189 199 199 193 192 195 188 185 175 174 171 173 173 173 172 173 173 172 175 175 180 181 181 183 184 184 186 188 187 190 193 196 200 202 203 203 203 203 213 213 216 215 212 215 201 169 175 184 192 199 206 211 212 221 188 162 98 107 96 104 88 87 138 120 105 110 106 139 176 207 210 223 227 226
333 342 346 355 1 15 24 19 1 13 326 222 200 201 189 196 194 192 185 173 171 170 170 173 171 173 172 174 173 167 172 180 182 184 183 185 188 192 191 188 192 196 199 198 202 200 202 202 206 206 212 213 215 217 215 209 173 172 180 170 183 192 188 198 206 209 210 202 152 123 130 138 145 167 172 187 202 197 200 207 219 219 219 218 91
348 357 358 1 360 12 21 29 26 23 17 337 197 198 187 192 190 193 171 172 174 169 170 173 173 172 173 172 172 171 181 183 178 188 168 103 207 200 191 189 194 207 208 205 198 198 199 208 209 206 209 218 218 220 220 213 172 167 173 175 183 189 187 184 198 199 201 209 171 170 189 196 200 206 218 224 223 218 225 227 225 224 219 203 181
355 2 7 6 11 13 8 9 21 31 29 48 20 31 182 188 192 187 173 180 170 173 177 177 174 173 169 171 174 174 181 188 178 182 122 99 61 55 38 40 128 35 48 44 63 185 211 220 218 218 354 229 232 226 87 138 141 159 171 166 171 176 187 189 182 187 193 203 193 192 211 213 213 217 219 220 221 221 218 217 218 211 208 197 184
358 18 16 14 16 12 12 15 2 18 39 42 41 43 30 335 224 187 176 177 173 176 179 176 175 173 167 167 172 176 178 193 185 173 138 129 112 54 47 53 69 80 72 69 71 69 51 42 77 139 67 49 81 108 107 114 123 132 145 149 158 171 180 178 162 167 190 204 199 203 212 210 207 216 216 216 219 219 219 216 208 189 193 193 176